Location: Peebles
(55.6412°N, 3.1714°W)
Time: 15:42:45
(UTC+01:00)

ZHUHAI-1 OVS-02 - Visible Passes

Search period start: 28 June 2022 00:00
Search period end: 08 July 2022 00:00
Orbit: 492 x 509 km, 97.2° (Epoch: 28 June)

Date Brightness Start Highest point End Pass type
(mag) Time Alt. Az. Time Alt. Az. Time Alt. Az.
28 Jun ? 23:34:33 10° W 23:35:13 10° W 23:35:52 10° WNW visible
29 Jun ? 23:13:12 10° SW 23:15:29 16° W 23:17:48 10° NW visible
30 Jun ? 22:52:51 10° SSW 22:55:49 23° W 22:58:50 10° NW visible
03 Jul ? 23:30:17 10° WSW 23:31:28 11° W 23:32:39 10° WNW visible
04 Jul ? 23:09:15 10° SW 23:11:43 17° W 23:14:10 10° NW visible
